Weather History for Windsor Locks, CT

Change the Weather History Date:

Friday, January 13, 2012

  Actual Average Record
Temperature  
Mean Temperature 37 °F 26 °F  
Max Temperature 45 °F 34 °F 59 °F (1932)
Min Temperature 28 °F 17 °F -9 °F (1981)
Degree Days  
Heating Degree Days 28 39  
Month to date heating degree days 398 504  
Since 1 July heating degree days 2205 2748  
Cooling Degree Days 0 0  
Month to date cooling degree days 0 0  
Year to date cooling degree days 0 0  
Moisture  
Dew Point 27 °F    
Average Humidity 72    
Maximum Humidity 100    
Minimum Humidity 43    
Precipitation  
Precipitation 0.03 in 0.10 in 1.02 in (1964)
Month to date precipitation 1.10 1.32  
Year to date precipitation 1.10 1.32  
Snow  
Snow 0.00 in 0.40 in 11.60 in (1938)
Month to date snowfall T 5.1  
Since 1 July snowfall 12.3 14.5  
Snow Depth 0.00 in    
Sea Level Pressure  
Sea Level Pressure 29.41 in    
Wind  
Wind Speed 13 mph (WSW)    
Max Wind Speed 35 mph    
Max Gust Speed 45 mph    
Visibility 5 miles    
Events Rain    
T = Trace of Precipitation, MM = Missing Value Source: NWS Daily Summary

Daily Weather History Graph

Daily Weather History Graph

Search for Another Location

Airport:

Trip Planner

Search our weather history database for the weather conditions in past years. The results will help you decide how hot, cold, wet, or windy it might be!

Date:

Astronomy

Jan. 13, 2012 Rise Set
Actual Time 7:17 AM EST 4:41 PM EST
Civil Twilight 6:46 AM EST 5:12 PM EST
Nautical Twilight 6:11 AM EST 5:47 PM EST
Astronomical Twilight 5:38 AM EST 6:20 PM EST
Moon 9:57 PM EST (1/13) 9:24 AM EST (1/13)
Length of Visible Light 10h 26m
Length of Day
9h 24m
Waning Gibbous, 79% of the Moon is Illuminated
Jan 13
Waning Gibbous
Jan 16
Last Quarter
Jan 23
New
Jan 30
First Quarter
Feb 7
Full

Hourly Weather History & Observations

Time (EST) Temp. Windchill Dew Point Humidity Pressure Visibility Wind Dir Wind Speed Gust Speed Precip Events Conditions
12:51 AM 33.1 °F - 32.0 °F 96% 29.54 in 4.0 mi Calm Calm - N/A   Overcast
1:27 AM 33.8 °F 30.8 °F 32.0 °F 93% 29.52 in 2.0 mi North 3.5 mph - N/A   Overcast
1:51 AM 33.1 °F 28.7 °F 32.0 °F 96% 29.52 in 1.0 mi NNE 4.6 mph - N/A   Overcast
2:51 AM 33.8 °F 28.6 °F 32.0 °F 93% 29.51 in 0.8 mi North 5.8 mph - N/A   Overcast
3:51 AM 33.1 °F 28.7 °F 32.0 °F 96% 29.49 in 0.8 mi North 4.6 mph - N/A   Overcast
4:51 AM 33.1 °F 26.9 °F 33.1 °F 100% 29.43 in 0.8 mi NNE 6.9 mph - 0.01 in   Overcast
5:51 AM 34.0 °F 28.0 °F 33.1 °F 96% 29.38 in 0.8 mi North 6.9 mph - 0.00 in Rain Light Rain
6:51 AM 34.0 °F 29.8 °F 33.1 °F 96% 29.33 in 1.0 mi North 4.6 mph - 0.02 in Rain Light Rain
7:51 AM 33.8 °F 29.6 °F 33.8 °F 100% 29.28 in 1.0 mi Variable 4.6 mph - N/A   Overcast
8:00 AM 33.8 °F 30.8 °F 33.8 °F 100% 29.28 in 0.8 mi NW 3.5 mph - N/A   Overcast
8:51 AM 36.0 °F - 35.1 °F 97% 29.25 in 0.2 mi Calm Calm - N/A   Overcast
9:28 AM 37.4 °F - 35.6 °F 93% 29.23 in 0.1 mi Calm Calm - N/A   Overcast
9:39 AM 37.4 °F - 37.4 °F 100% 29.23 in 0.5 mi Calm Calm - N/A   Overcast
9:51 AM 39.0 °F 35.7 °F 37.0 °F 93% 29.23 in 0.5 mi WSW 4.6 mph - N/A   Overcast
10:17 AM 41.0 °F 35.2 °F 39.2 °F 93% 29.24 in 2.0 mi SW 9.2 mph - N/A   Mostly Cloudy
10:24 AM 41.0 °F 33.5 °F 39.2 °F 93% 29.24 in 7.0 mi SW 13.8 mph 18.4 mph N/A   Scattered Clouds
10:51 AM 44.1 °F 36.2 °F 36.0 °F 73% 29.25 in 10.0 mi SW 18.4 mph 31.1 mph N/A   Partly Cloudy
11:51 AM 42.1 °F 33.9 °F 33.1 °F 70% 29.26 in 10.0 mi SW 17.3 mph 29.9 mph 0.00 in   Mostly Cloudy
12:51 PM 43.0 °F 33.5 °F 23.0 °F 45% 29.25 in 10.0 mi SW 24.2 mph 35.7 mph N/A   Clear
1:51 PM 37.0 °F 24.3 °F 19.9 °F 50% 29.31 in 10.0 mi WSW 31.1 mph 41.4 mph N/A   Mostly Cloudy
2:51 PM 33.1 °F 19.6 °F 15.1 °F 48% 29.36 in 10.0 mi WSW 27.6 mph 40.3 mph N/A   Mostly Cloudy
3:51 PM 32.0 °F 19.8 °F 12.9 °F 45% 29.42 in 10.0 mi WSW 20.7 mph 36.8 mph N/A   Mostly Cloudy
4:51 PM 30.0 °F 16.0 °F 12.0 °F 47% 29.47 in 10.0 mi SW 25.3 mph 35.7 mph N/A   Mostly Cloudy
5:51 PM 28.9 °F 16.5 °F 12.9 °F 51% 29.52 in 10.0 mi WSW 18.4 mph 33.4 mph N/A   Scattered Clouds
6:51 PM 28.9 °F 16.5 °F 12.0 °F 49% 29.56 in 10.0 mi SW 18.4 mph 27.6 mph N/A   Mostly Cloudy
7:51 PM 28.9 °F 14.3 °F 12.0 °F 49% 29.59 in 10.0 mi SW 26.5 mph 32.2 mph N/A   Mostly Cloudy
8:51 PM 28.0 °F 16.5 °F 14.0 °F 56% 29.62 in 10.0 mi SW 15.0 mph 24.2 mph N/A   Scattered Clouds
9:51 PM 28.0 °F 17.5 °F 15.1 °F 58% 29.64 in 10.0 mi SW 12.7 mph 20.7 mph N/A   Clear
10:51 PM 28.9 °F 19.8 °F 16.0 °F 58% 29.67 in 10.0 mi SSW 10.4 mph - N/A   Scattered Clouds
11:51 PM 28.0 °F 17.5 °F 15.1 °F 58% 29.68 in 10.0 mi SW 12.7 mph - N/A   Partly Cloudy